Oakland, MD

9:51 PM EDT on March 30, 2017 (GMT -0400)
Oakland

Weather History for K2G4 - October, 2013

Change the Weather History Date:

Monday, October 14, 2013

  Actual Average (KMGW) Record (KMGW)
Temperature  
Mean Temperature 55 °F -  
Max Temperature 60 °F 67 °F 85 °F (1954)
Min Temperature 50 °F 45 °F 25 °F (1988)
Degree Days  
Heating Degree Days 10    
Growing Degree Days 5 (Base 50)    
Moisture  
Dew Point 59 °F    
Average Humidity 100    
Maximum Humidity 100    
Minimum Humidity 94    
Precipitation  
Precipitation 0.00 in - - ()
Sea Level Pressure  
Sea Level Pressure 30.30 in    
Wind  
Wind Speed 8 mph (SE)    
Max Wind Speed 14 mph    
Max Gust Speed 17 mph    
Visibility 2 miles    
Events Fog    
Averages and records for this station are not official NWS values.
T = Trace of Precipitation, MM = Missing Value Source: NWS Daily Summary

Daily Weather History Graph

Daily Weather History Graph

Search for Another Location

Airport or City:

Trip Planner

Search our weather history database for the weather conditions in past years. The results will help you decide how hot, cold, wet, or windy it might be!

Date:

Astronomy

Oct. 14, 2013 Rise Set
Actual Time 7:26 AM EDT 6:39 PM EDT
Civil Twilight 6:59 AM EDT 7:06 PM EDT
Nautical Twilight 6:28 AM EDT 7:37 PM EDT
Astronomical Twilight 5:57 AM EDT 8:08 PM EDT
Moon 4:06 PM EDT (10/14) 2:42 AM EDT (10/14)
Length of Visible Light 12h 06m
Length of Day
11h 12m
Waxing Gibbous, 79% of the Moon is Illuminated
Oct 14
Waxing Gibbous
Oct 18
Full
Oct 26
Last Quarter
Nov 3
New
Nov 10
First Quarter

Hourly Weather History & Observations

Time (EDT) Temp. Dew Point Humidity Pressure Visibility Wind Dir Wind Speed Gust Speed Precip Events Conditions
12:00 AM 50.0 °F - N/A% 30.32 in 0.2 mi SE 12.7 mph 17.3 mph N/A Fog Fog
12:20 AM 50.0 °F - N/A% 30.31 in 0.2 mi SE 12.7 mph - N/A Fog Fog
12:40 AM 50.0 °F - N/A% 30.31 in 0.2 mi SE 10.4 mph 17.3 mph N/A Fog Fog
1:00 AM 50.0 °F - N/A% 30.31 in 0.2 mi SE 9.2 mph - N/A Fog Fog
1:20 AM 50.0 °F - N/A% 30.32 in 0.2 mi SE 8.1 mph - N/A Fog Fog
1:40 AM 50.0 °F - N/A% 30.32 in 0.2 mi SE 11.5 mph - N/A Fog Fog
2:00 AM 50.0 °F - N/A% 30.31 in 0.2 mi SE 10.4 mph - N/A Fog Fog
2:20 AM 50.0 °F - N/A% 30.31 in 0.2 mi SE 13.8 mph - N/A Fog Fog
2:40 AM 50.0 °F - N/A% 30.31 in 0.2 mi SE 10.4 mph - N/A Fog Fog
3:00 AM 50.0 °F - N/A% 30.31 in 0.2 mi SE 8.1 mph - N/A Fog Fog
3:20 AM 50.0 °F - N/A% 30.31 in 0.2 mi SE 11.5 mph - N/A Fog Fog
3:40 AM 50.0 °F - N/A% 30.31 in 0.2 mi SE 11.5 mph - N/A Fog Fog
4:00 AM 50.0 °F - N/A% 30.30 in 0.2 mi SE 9.2 mph - N/A Fog Fog
4:20 AM 50.0 °F - N/A% 30.31 in 0.2 mi SE 10.4 mph - N/A Fog Fog
4:40 AM 50.0 °F - N/A% 30.31 in 0.2 mi SE 10.4 mph - N/A Fog Fog
5:00 AM 50.0 °F - N/A% 30.30 in 0.2 mi SE 11.5 mph - N/A Fog Fog
5:20 AM 50.0 °F - N/A% 30.30 in 0.2 mi SE 11.5 mph - N/A Fog Fog
5:40 AM 50.0 °F - N/A% 30.30 in 0.2 mi SE 9.2 mph - N/A Fog Fog
6:00 AM 50.0 °F - N/A% 30.30 in 0.2 mi SE 10.4 mph - N/A Fog Fog
6:20 AM 50.0 °F - N/A% 30.31 in 0.2 mi SE 9.2 mph - N/A Fog Fog
6:40 AM 50.0 °F - N/A% 30.31 in 0.2 mi SE 4.6 mph - N/A Fog Fog
7:00 AM 50.0 °F - N/A% 30.31 in 0.2 mi SE 6.9 mph - N/A Fog Fog
7:20 AM 50.0 °F - N/A% 30.31 in 0.2 mi SE 8.1 mph - N/A Fog Fog
7:40 AM 50.0 °F - N/A% 30.32 in 0.2 mi SE 9.2 mph - N/A Fog Fog
8:00 AM 50.0 °F - N/A% 30.32 in 0.2 mi SE 8.1 mph - N/A Fog Fog
8:20 AM 50.0 °F - N/A% 30.33 in 0.2 mi SE 8.1 mph - N/A Fog Fog
8:40 AM 50.0 °F - N/A% 30.33 in 0.2 mi SE 5.8 mph - N/A Fog Fog
9:00 AM 50.0 °F - N/A% 30.34 in 0.2 mi SE 5.8 mph - N/A Fog Fog
9:20 AM 51.8 °F - N/A% 30.33 in 0.2 mi SE 6.9 mph - N/A Fog Fog
9:40 AM 51.8 °F - N/A% 30.33 in 0.2 mi SE 6.9 mph - N/A Fog Fog
10:00 AM 51.8 °F - N/A% 30.33 in 0.2 mi SE 5.8 mph - N/A Fog Fog
10:20 AM 51.8 °F - N/A% 30.33 in 0.2 mi SE 6.9 mph - N/A Fog Fog
10:40 AM 51.8 °F - N/A% 30.33 in 0.2 mi SE 6.9 mph - N/A Fog Fog
11:00 AM 53.6 °F - N/A% 30.33 in 0.5 mi SSE 4.6 mph - N/A Fog Fog
11:20 AM 53.6 °F - N/A% 30.32 in 4.0 mi Calm Calm - N/A   Haze
11:40 AM 55.4 °F - N/A% 30.32 in 5.0 mi SE 3.5 mph - N/A   Haze
12:00 PM 55.4 °F - N/A% 30.32 in 5.0 mi SE 4.6 mph - N/A   Haze
12:20 PM 55.4 °F - N/A% 30.32 in 7.0 mi SE 3.5 mph - N/A   Overcast
12:40 PM 55.4 °F - N/A% 30.32 in 7.0 mi Calm Calm - N/A   Overcast
1:00 PM 57.2 °F - N/A% 30.31 in 10.0 mi ESE 3.5 mph - N/A   Overcast
1:20 PM 59.0 °F - N/A% 30.30 in 10.0 mi Calm Calm - N/A   Overcast
1:40 PM 59.0 °F 59.0 °F 100% 30.29 in 10.0 mi East 4.6 mph - N/A   Overcast
2:00 PM 59.0 °F 59.0 °F 100% 30.29 in 7.0 mi ESE 3.5 mph - N/A   Overcast
2:20 PM 59.0 °F 59.0 °F 100% 30.29 in 7.0 mi Calm Calm - N/A   Overcast
2:40 PM 59.0 °F 59.0 °F 100% 30.28 in 10.0 mi Calm Calm - N/A   Overcast
3:00 PM 60.8 °F 60.8 °F 100% 30.28 in 7.0 mi NNE 3.5 mph - N/A   Overcast
3:20 PM 60.8 °F 59.0 °F 94% 30.27 in 7.0 mi Calm Calm - N/A   Mostly Cloudy
3:40 PM 60.8 °F 60.8 °F 100% 30.27 in 10.0 mi NNE 3.5 mph - N/A   Mostly Cloudy
4:00 PM 60.8 °F 60.8 °F 100% 30.27 in 10.0 mi Calm Calm - N/A   Mostly Cloudy
4:20 PM 60.8 °F 60.8 °F 100% 30.27 in 10.0 mi Calm Calm - N/A   Mostly Cloudy
4:40 PM 60.8 °F 60.8 °F 100% 30.27 in 10.0 mi Calm Calm - N/A   Overcast
5:00 PM 59.0 °F 59.0 °F 100% 30.27 in 10.0 mi ESE 6.9 mph - N/A   Overcast
5:20 PM 57.2 °F 57.2 °F 100% 30.26 in 10.0 mi East 4.6 mph - N/A   Overcast
5:40 PM 57.2 °F 57.2 °F 100% 30.26 in 10.0 mi ESE 4.6 mph - N/A   Overcast
6:00 PM 55.4 °F - N/A% 30.27 in 5.0 mi ESE 6.9 mph - N/A   Haze
6:20 PM 53.6 °F - N/A% 30.28 in 0.5 mi SE 6.9 mph - N/A Fog Fog
6:40 PM 53.6 °F - N/A% 30.28 in 0.2 mi ESE 6.9 mph - N/A Fog Fog
7:00 PM 53.6 °F - N/A% 30.28 in 0.2 mi SE 5.8 mph - N/A Fog Fog
7:20 PM 53.6 °F - N/A% 30.29 in 0.2 mi SE 6.9 mph - N/A Fog Fog
7:40 PM 51.8 °F - N/A% 30.29 in 0.2 mi SE 6.9 mph - N/A Fog Fog
8:00 PM 51.8 °F - N/A% 30.29 in 0.2 mi SE 6.9 mph - N/A Fog Fog
8:20 PM 51.8 °F - N/A% 30.29 in 0.2 mi SE 6.9 mph - N/A Fog Fog
8:40 PM 51.8 °F - N/A% 30.29 in 0.2 mi SE 6.9 mph - N/A Fog Fog
9:00 PM 51.8 °F - N/A% 30.29 in 0.2 mi SE 8.1 mph - N/A Fog Fog
9:20 PM 51.8 °F - N/A% 30.29 in 0.2 mi SE 8.1 mph - N/A Fog Fog
9:40 PM 51.8 °F - N/A% 30.29 in 0.2 mi ESE 9.2 mph - N/A Fog Fog
10:00 PM 51.8 °F - N/A% 30.29 in 0.2 mi SE 8.1 mph - N/A Fog Fog
10:20 PM 51.8 °F - N/A% 30.29 in 0.2 mi SE 8.1 mph - N/A Fog Fog
10:40 PM 51.8 °F - N/A% 30.29 in 0.2 mi ESE 8.1 mph - N/A Fog Fog
11:00 PM 51.8 °F - N/A% 30.28 in 0.2 mi SE 10.4 mph - N/A Fog Fog
11:25 PM 51.8 °F - N/A% 30.28 in 0.2 mi ESE 9.2 mph - N/A Fog Fog
11:45 PM 51.8 °F - N/A% 30.28 in 0.2 mi ESE 6.9 mph - N/A Fog Fog